Tracking 31027 objects as of 19-Jul-2025
HD Live streaming from Space Station
objects crossing your sky now

COSMOS 2380 (GLONASS)

Track COSMOS 2380 (GLONASS) now!
COSMOS 2380 (GLONASS) is classified as:


NORAD ID: 26989
Int'l Code: 2001-053C
Perigee: 19,122.1 km
Apogee: 19,151.8 km
Inclination: 63.9 °
Period: 675.7 minutes
Semi major axis: 25507 km
RCS: 1.9952 m2 (large)
Launch date: December 1, 2001
Source: Commonwealth of Independent States (former USSR) (CIS)
Launch site: TYURATAM MISSILE AND SPACE COMPLEX (TTMTR)
Your satellite tracking list
Your tracking list is empty




NASA's NSSDC Master Catalog

Two Line Element Set (TLE):
1 26989U 01053C   25198.77650328 -.00000029  00000-0  00000-0 0  9998
2 26989  63.8560  69.2938 0005830  37.1557 175.3462  2.13102822183882
Source of the keplerian elements: AFSPC